Temp
21 22 22 23 23 24 24 24 23 23 22 21 21 21 21 21 22 22 22 22 22 22 22 22 22 21 21 21 21 21 21 22 22 21 21 21 21 20 20 20 20 20 19 19 19 19 19 19 18 18 18 18 18 18 18 18 18 18 18 18 18 18 18 18 18 18 17 17 17 17 18 18 18 17 17 17 17 17 17 17 17 17 17 17 17
21 22 22 23 23 24 23 24 23 22 22 21 21 21 21 21 22 22 22 22 21 22 22 22 21 21 21 21 21 21 21 21 21 21 21 21 20 20 20 20 20 20 19 19 19 19 18 18 18 18 18 18 18 18 18 18 18 18 18 19 19 19 19 18 18 18 18 18 18 17 17 17 17 17 17 17 17 17 17 17 17 17 17 17 16
21 22 23 23 23 24 23 24 23 22 21 21 21 21 21 21 21 22 22 22 21 22 22 21 21 21 21 21 21 21 21 21 21 21 21 21 20 20 20 20 20 20 19 19 19 19 18 18 18 18 18 18 18 18 18 18 17 17 18 19 19 18 18 18 18 18 18 18 18 18 17 17 17 17 17 17 17 17 17 17 16 16 16 16 16
21 22 22 23 23 23 23 24 23 21 21 21 21 21 21 21 21 22 22 21 21 21 21 21 21 21 21 21 20 20 21 21 21 21 21 21 20 20 20 20 19 19 19 19 19 19 18 18 18 18 18 18 18 18 17 17 17 18 19 19 18 18 18 18 18 18 18 18 18 18 18 17 17 17 17 17 17 17 17 17 16 16 16 16 16
21 22 22 23 23 23 23 23 22 21 21 21 21 21 21 21 21 21 22 21 21 21 21 21 21 21 20 20 20 20 20 21 21 20 20 20 20 20 20 20 19 19 19 19 19 19 19 19 18 18 18 18 18 18 17 17 18 18 19 18 18 18 18 18 18 17 17 17 17 18 18 18 18 17 17 17 17 17 17 17 17 16 16 16 16
21 22 22 23 23 23 23 23 22 21 21 21 21 21 21 21 21 21 21 21 21 21 21 21 21 20 20 20 20 20 20 20 20 20 20 20 20 20 20 20 19 19 19 19 19 19 19 19 19 18 18 18 18 18 17 17 18 19 19 18 18 18 18 18 18 18 18 18 17 17 18 19 18 17 17 17 17 17 17 17 17 16 16 16 16
22 22 22 23 23 23 23 23 21 21 21 21 21 21 21 21 21 21 21 21 21 21 21 21 21 20 20 20 20 20 20 20 20 20 20 20 19 19 19 19 19 19 19 19 19 19 19 19 19 18 18 18 18 18 17 18 18 19 19 19 18 18 18 18 18 18 18 18 17 17 18 19 19 17 17 17 17 17 17 17 17 16 16 16 16
21 21 22 23 23 23 23 22 22 21 21 21 21 20 20 20 20 21 21 21 20 20 20 20 20 20 20 20 20 20 20 20 20 20 19 19 19 19 19 19 19 19 19 19 19 19 19 19 19 18 18 18 18 18 18 18 19 19 19 19 19 18 18 18 18 18 18 18 17 17 18 19 19 18 17 17 17 17 17 16 16 16 16 16 16
21 21 22 22 23 22 23 22 22 22 22 21 21 20 20 20 20 20 20 20 20 20 20 20 20 20 19 19 19 20 20 20 20 20 20 20 20 19 19 19 19 19 19 19 19 19 19 19 18 18 18 18 18 18 18 18 19 19 19 19 19 19 19 18 19 19 19 18 17 17 18 19 19 19 17 17 17 17 17 16 16 16 16 16 16
20 21 22 22 22 22 22 22 22 22 22 21 20 20 20 20 20 20 20 20 20 20 20 20 20 19 19 19 19 20 20 20 20 20 20 20 20 20 20 20 19 19 19 18 19 19 18 18 18 18 18 18 18 18 18 18 19 19 20 20 20 19 19 19 19 19 19 18 17 17 19 19 19 19 17 17 17 16 16 16 16 16 16 16 16
20 21 22 22 22 22 22 22 22 22 22 21 20 19 19 19 20 20 20 20 20 20 20 19 19 19 19 20 20 20 20 20 20 20 20 20 20 20 20 20 19 19 18 18 18 18 18 18 18 18 18 18 18 18 18 18 19 19 20 20 20 20 20 20 20 19 18 18 18 18 19 19 20 20 18 17 17 16 17 16 16 16 16 16 16
20 21 22 22 22 22 22 22 22 22 21 20 19 19 19 19 19 19 19 20 20 19 19 19 19 20 20 20 20 20 20 20 20 20 20 20 20 20 20 20 19 19 19 18 18 18 18 18 18 18 18 18 18 18 18 18 19 19 20 21 20 20 20 20 20 19 18 18 18 19 19 20 20 19 18 17 16 16 16 16 16 16 16 16 16
20 21 22 22 22 22 22 22 22 22 21 20 19 19 19 19 19 19 19 20 19 19 19 19 19 20 20 20 20 20 20 20 20 19 19 19 19 19 19 19 19 19 19 18 18 18 18 18 18 18 18 18 18 18 18 18 19 20 20 20 20 20 20 20 20 19 18 18 19 19 20 20 20 19 17 16 16 16 16 16 16 16 16 16 16
20 21 21 22 22 22 22 22 22 22 21 20 20 20 19 19 19 19 19 19 19 19 19 19 20 20 20 20 20 20 19 19 19 19 19 19 19 19 19 19 19 19 19 18 18 18 18 18 18 18 18 18 18 18 18 18 18 19 20 20 20 20 20 21 20 19 18 19 19 20 20 20 20 19 17 16 16 16 16 16 16 16 15 15 15
20 21 21 22 22 22 22 22 22 21 21 21 21 20 20 19 19 19 19 19 19 19 19 20 20 20 20 19 19 19 19 19 19 19 19 19 19 19 19 19 19 19 18 18 18 18 18 18 18 18 18 18 18 18 18 18 18 19 20 20 20 21 21 21 20 19 18 19 19 20 20 20 20 19 17 16 16 16 16 16 16 16 15 15 15
20 21 21 21 21 21 21 21 21 21 21 21 21 20 20 20 20 19 19 19 19 19 20 20 20 20 19 19 19 19 19 19 19 19 19 19 19 18 18 19 19 19 18 18 18 18 18 18 18 18 18 18 18 18 18 18 18 19 19 20 20 20 21 21 20 19 19 19 19 20 20 19 19 19 17 16 16 16 16 16 16 16 15 15 15
19 20 21 21 21 21 21 21 21 21 21 21 20 20 20 20 20 20 19 19 19 19 19 20 20 20 19 19 19 19 19 19 19 19 19 18 18 18 18 18 19 19 18 18 18 18 18 18 18 18 18 18 18 18 18 18 18 19 19 19 20 20 20 21 19 19 19 19 20 19 20 20 19 19 18 16 15 16 15 16 16 15 15 15 15
19 19 21 21 21 21 21 21 21 21 21 20 20 20 20 20 20 20 20 19 19 19 19 20 20 20 19 19 19 19 19 19 19 19 18 18 18 18 18 18 18 19 19 18 18 18 18 18 18 18 18 18 18 18 18 18 18 19 19 20 20 20 20 20 19 19 19 19 19 19 20 20 19 19 19 16 15 16 15 15 15 15 15 15 15
20 20 21 20 20 21 21 21 20 21 20 20 20 20 20 20 20 20 20 19 19 19 19 20 19 20 20 19 19 19 19 19 19 19 19 18 18 18 18 18 18 19 18 18 18 18 18 18 18 18 18 18 18 18 18 19 19 19 19 19 20 20 20 20 19 19 19 20 20 20 19 19 19 19 19 17 15 16 15 15 15 15 15 15 15
20 20 20 20 20 20 20 20 20 20 20 20 20 20 20 20 20 20 19 19 19 19 19 19 19 19 19 20 20 19 19 19 19 19 19 18 18 18 18 18 18 18 18 18 18 18 18 18 18 18 18 18 18 18 18 18 19 19 19 19 19 20 20 19 19 19 19 20 20 20 19 19 19 18 18 17 15 15 15 15 15 15 15 15 14
19 20 20 19 20 20 20 20 20 20 20 20 20 20 20 20 20 20 19 19 19 19 19 19 19 19 19 20 19 19 19 19 19 19 19 18 18 18 18 18 18 18 18 18 18 18 18 18 18 18 18 18 18 18 18 18 19 19 20 20 20 20 20 19 18 19 19 20 20 19 19 19 19 18 18 16 15 15 15 15 15 15 15 15 15
20 20 20 19 20 20 20 20 20 20 20 20 20 20 20 20 20 19 19 19 19 19 19 19 19 19 19 20 19 19 19 19 19 19 19 18 18 18 18 18 18 18 18 18 18 18 18 18 18 18 18 18 18 18 18 19 19 19 20 20 20 20 20 19 18 19 19 20 20 20 19 19 19 18 17 16 15 15 15 15 15 15 15 15 15
19 19 19 19 20 20 20 20 20 20 20 20 20 20 20 20 20 20 19 19 19 19 19 19 19 19 19 19 19 18 19 18 19 18 18 18 18 18 18 18 18 18 18 18 18 18 18 18 18 18 18 18 18 18 18 19 19 19 20 20 20 20 20 19 19 19 20 20 20 19 19 19 19 18 17 16 15 15 15 15 15 15 15 15 15
19 20 19 19 20 20 20 20 20 20 20 20 20 20 20 20 20 20 19 19 19 19 19 19 19 19 19 19 18 18 18 18 18 18 18 18 18 18 18 18 18 18 18 18 18 18 18 18 18 18 18 18 18 18 18 19 19 19 19 20 20 20 20 19 19 20 20 20 20 19 19 19 18 18 17 16 15 15 15 15 15 15 15 14 14
20 20 20 19 20 20 19 19 19 19 19 19 19 19 19 19 20 19 19 19 19 19 19 19 19 19 19 19 18 18 18 18 18 17 17 18 18 18 18 18 18 18 18 17 17 17 17 17 17 17 18 18 18 18 18 18 18 19 19 20 20 20 20 19 19 20 20 19 19 19 19 18 18 17 16 16 15 15 15 15 15 15 14 14 14
19 20 20 20 19 20 19 19 19 19 19 19 19 19 19 19 19 19 19 19 19 19 19 19 19 18 19 19 18 18 18 18 17 17 17 18 18 18 18 18 18 18 17 17 17 17 17 17 17 17 17 18 18 18 18 18 18 19 19 19 20 20 20 19 19 20 20 19 19 19 19 18 18 16 16 16 15 15 15 14 14 14 14 14 14
19 20 20 20 20 20 20 19 19 19 19 19 19 19 18 19 19 19 18 18 18 19 19 19 19 18 19 19 18 18 18 18 17 18 17 17 18 18 17 17 18 17 17 17 17 17 17 17 17 17 18 18 18 18 18 18 18 19 19 19 19 20 20 19 19 20 20 19 19 19 19 19 18 17 16 16 15 15 15 14 14 14 14 14 14
19 21 21 21 20 20 20 20 19 19 19 19 19 19 18 19 19 18 18 18 18 18 19 19 19 18 18 18 18 17 18 18 17 17 17 17 18 18 17 17 17 17 17 17 17 17 17 17 17 17 18 18 18 18 18 19 19 19 19 19 20 20 20 19 19 19 20 20 19 19 19 19 18 17 16 16 15 15 15 14 14 15 15 14 14
20 22 22 22 21 21 20 20 20 20 20 19 19 18 18 19 18 18 18 18 17 17 18 19 19 18 18 17 17 17 18 18 17 17 17 17 17 17 17 17 17 17 17 17 17 17 17 18 18 18 18 18 18 18 19 19 19 19 19 20 20 20 20 20 19 19 19 20 19 19 19 19 19 17 16 16 16 15 15 15 14 15 15 15 14
22 22 22 22 21 21 21 21 21 20 20 20 20 19 19 19 19 18 18 18 18 17 18 18 18 18 18 18 18 18 18 18 18 17 17 18 18 17 17 17 17 17 17 17 17 18 18 18 18 18 18 18 18 18 19 19 20 20 20 20 20 20 20 20 19 19 19 19 19 19 19 19 18 17 16 16 16 16 15 15 15 15 15 15 15
24 24 23 23 22 22 22 22 22 21 21 21 20 20 20 20 19 19 19 18 18 17 18 18 18 17 17 17 17 18 18 17 18 17 17 17 17 17 17 17 17 17 17 17 18 18 18 18 18 18 18 18 18 19 19 19 20 20 20 20 20 21 20 20 20 19 19 19 19 19 19 19 18 18 17 16 16 16 15 15 15 15 15 15 15
22 24 24 24 23 22 22 22 22 22 21 21 21 20 20 20 19 19 19 19 18 18 18 18 18 17 17 17 17 17 17 17 17 17 17 17 17 17 17 17 17 18 18 18 18 18 18 18 18 18 18 18 18 19 20 19 19 20 20 20 20 21 21 20 20 20 19 19 19 19 19 19 19 18 18 17 16 16 16 15 15 15 15 15 14
20 23 24 24 23 23 23 22 22 22 21 21 21 21 20 20 20 19 19 19 19 18 18 18 18 17 17 17 17 17 17 17 17 16 17 18 17 17 17 18 17 17 17 17 17 18 18 18 18 18 18 18 19 19 19 19 20 20 19 20 20 20 20 20 20 20 20 19 19 19 19 19 19 19 18 18 17 16 16 16 15 15 15 15 15
19 23 24 23 23 23 23 22 22 22 22 22 21 21 21 20 20 20 20 20 19 19 18 18 18 18 18 17 17 17 17 17 17 16 17 17 17 17 17 18 17 17 17 17 17 17 17 18 18 18 18 18 19 19 19 19 19 19 19 19 19 19 19 20 20 20 20 20 20 20 19 19 19 19 19 18 18 17 16 16 16 15 16 16 15
20 23 23 23 23 23 23 22 22 22 22 22 21 21 20 20 20 20 20 20 20 19 19 18 18 18 18 18 17 17 17 17 16 16 16 17 17 17 17 17 17 17 17 17 17 17 17 18 18 18 18 18 18 18 18 19 19 18 18 19 19 19 19 19 20 19 19 19 20 20 20 19 19 19 19 19 18 18 17 17 16 16 16 16 15
22 23 22 22 22 22 22 22 21 21 21 21 21 21 20 20 20 20 20 20 20 19 19 19 18 17 18 18 17 17 18 17 17 17 16 16 17 17 17 16 16 17 17 17 17 17 17 17 18 18 18 18 18 18 18 18 18 18 18 18 19 19 19 19 19 19 19 19 19 19 19 19 19 19 19 19 19 19 18 17 17 16 16 16 16
22 22 22 22 22 22 22 21 21 21 21 21 20 20 20 20 20 20 20 20 19 19 19 18 18 17 17 17 17 17 17 18 18 17 17 16 17 17 17 16 16 16 16 17 17 17 17 17 17 17 17 17 17 17 18 18 18 18 18 18 18 19 19 19 19 19 19 19 19 19 19 19 20 20 19 19 19 19 19 18 18 17 17 16 16
22 22 22 21 21 21 21 20 20 20 20 20 20 20 20 20 20 20 20 19 19 19 19 18 18 17 17 17 17 17 17 17 18 17 17 17 17 17 17 16 16 16 16 17 17 17 17 17 17 17 17 17 17 17 17 18 18 18 18 18 18 18 18 18 19 19 19 19 19 18 18 19 19 19 19 20 20 19 19 19 18 18 17 17 16
22 22 21 21 21 20 20 20 20 20 20 20 20 20 20 20 20 20 20 19 19 19 18 18 18 18 18 18 18 17 17 17 17 17 17 17 17 17 17 16 17 17 17 16 16 16 16 17 17 16 17 17 17 17 17 17 18 18 18 18 18 18 18 18 18 19 19 19 19 19 19 18 18 19 19 19 19 19 19 19 19 18 18 18 17
22 21 21 21 20 20 20 19 19 20 20 20 20 20 20 20 20 20 20 19 19 19 18 18 18 18 18 18 17 17 17 17 17 17 17 17 18 18 17 17 17 17 17 16 16 16 16 16 16 16 16 17 17 17 17 17 17 17 17 17 17 17 18 18 18 18 18 19 18 19 19 19 18 18 18 18 19 19 19 19 19 19 19 18 18
22 21 21 20 20 20 19 19 19 20 20 20 20 20 20 20 20 20 19 19 19 18 18 18 18 18 17 17 17 17 17 17 17 17 17 17 17 17 17 17 17 17 16 16 16 16 16 16 16 16 16 16 16 16 17 17 16 16 16 16 17 17 17 18 18 18 18 18 18 18 18 19 19 19 18 18 18 18 18 18 18 18 18 18 18
21 21 21 20 20 20 19 19 19 20 20 20 20 20 20 20 20 20 19 19 19 18 18 18 18 18 18 17 17 17 18 17 17 17 17 17 17 17 17 17 17 16 16 16 16 16 16 16 15 16 15 15 16 16 16 16 16 16 16 16 16 17 17 17 18 18 18 18 18 18 18 18 18 19 19 19 18 18 18 18 18 18 17 18 18
21 21 21 20 20 20 19 19 20 20 20 20 20 21 21 20 20 20 19 19 19 18 18 17 17 17 17 17 17 17 17 18 18 18 17 17 17 17 17 17 16 17 16 16 16 16 16 16 15 15 14 14 15 15 15 15 15 16 16 16 16 16 16 16 17 17 17 17 17 18 18 18 18 19 19 19 19 19 18 18 18 18 17 17 17
21 21 21 20 20 20 19 19 20 20 20 20 21 20 20 20 20 19 19 19 18 18 17 17 17 17 17 17 17 17 17 17 18 17 18 17 17 17 17 17 17 17 16 16 16 16 15 15 15 15 14 15 15 14 15 15 15 16 16 16 16 16 16 16 16 16 16 17 17 18 18 18 18 18 19 19 19 19 19 18 18 18 18 17 17
21 21 21 20 20 19 19 19 20 20 20 20 20 20 20 20 19 19 19 18 18 18 17 17 17 17 16 17 17 17 17 17 17 17 17 17 17 17 17 17 17 17 16 16 16 16 16 15 15 15 15 15 15 14 14 15 15 15 15 15 15 16 16 16 16 16 16 16 17 17 17 18 18 18 18 18 18 19 19 18 18 18 18 18 18
21 21 21 20 20 20 19 19 20 20 20 20 20 20 20 20 19 19 18 18 18 18 17 17 17 17 16 16 16 16 17 17 17 17 17 17 17 17 17 17 17 17 16 16 16 16 16 16 15 15 15 15 15 15 14 14 14 14 15 15 15 15 16 16 16 16 16 16 16 17 17 17 18 18 18 18 18 18 19 19 19 19 19 19 18
21 21 21 21 20 20 20 20 20 20 20 20 20 20 20 20 20 19 19 18 18 18 18 17 17 17 16 16 16 16 16 16 16 17 17 17 17 17 17 17 17 17 17 16 16 16 16 16 16 16 15 15 15 15 14 14 14 14 15 16 15 15 15 16 16 16 16 16 16 16 17 17 17 17 18 18 18 18 19 19 19 19 19 19 19
21 21 21 21 20 20 20 20 20 20 20 20 20 20 20 20 20 19 19 18 18 18 18 17 17 17 17 16 16 16 16 16 16 16 16 16 17 17 17 17 17 17 17 16 16 16 16 16 16 15 15 15 15 16 15 15 15 15 15 15 15 15 15 16 16 16 16 16 17 17 17 17 17 17 17 17 18 18 18 19 19 19 19 19 19
21 21 21 21 20 20 20 20 20 20 20 20 20 20 20 20 20 19 19 18 18 18 18 17 17 17 17 17 16 16 16 16 16 16 16 16 16 16 17 17 17 16 16 16 16 16 16 16 16 15 15 15 15 16 15 15 16 15 15 15 15 15 15 15 15 15 15 16 16 16 16 17 17 17 17 17 17 17 18 18 19 19 19 19 19
21 21 21 21 20 20 20 20 20 20 19 19 19 19 20 20 20 19 19 18 18 18 18 17 17 17 17 17 17 16 16 16 16 16 16 16 16 16 16 16 16 16 16 16 16 15 15 15 15 15 16 16 15 15 16 16 16 16 16 16 16 15 15 15 15 15 15 15 15 16 16 16 17 17 17 17 17 18 18 18 18 18 18 18 18
20 20 20 20 19 19 20 20 20 19 19 19 19 19 20 20 19 19 19 18 18 18 17 17 17 17 17 17 16 16 16 16 16 16 16 16 16 16 16 16 16 16 16 16 15 15 15 15 15 15 15 15 15 16 16 16 16 16 16 16 16 16 15 15 15 15 15 15 15 15 15 16 17 17 18 18 18 18 18 18 18 19 19 19 18
Height
767 765 767 770 775 777 779 780 782 783 784 786 787 789 790 792 793 794 796 797 799 800 801 802 803 804 805 806 808 808 809 810 811 812 813 814 815 816 817 818 819 820 820 821 822 822 823 823 823 824 824 824 824 824 824 825 825 825 825 825 826 826 827 827 828 828 829 829 830 831 831 832 833 833 833 833 833 833 833 834 834 834 834 834 834
765 765 766 770 774 777 779 780 782 783 785 787 788 789 790 792 793 795 796 798 800 801 802 803 804 806 806 807 808 809 810 811 812 813 814 816 816 817 818 819 820 821 821 822 822 823 824 824 824 824 825 825 825 825 825 826 826 826 826 826 827 827 827 828 828 829 830 830 831 831 832 833 833 834 834 834 834 834 835 835 835 835 835 835 835
766 767 766 769 774 776 779 780 782 783 785 787 788 790 791 793 794 796 797 799 801 802 803 804 806 807 807 808 809 810 811 812 813 814 815 817 818 819 819 820 821 822 822 823 823 824 824 824 825 825 826 826 826 826 826 827 827 827 827 827 827 828 828 829 829 830 830 831 832 832 833 834 834 835 835 835 835 836 836 836 836 836 836 836 836
767 767 768 770 773 776 779 781 782 784 786 787 789 790 791 793 794 796 798 800 801 803 804 805 807 807 808 809 810 811 812 813 814 815 816 818 819 820 820 821 822 822 823 823 824 825 825 826 826 827 827 827 827 827 827 827 827 828 828 828 828 829 829 830 830 831 831 832 833 833 833 834 835 836 836 836 837 837 837 837 837 837 837 837 837
769 769 769 770 773 776 778 781 783 784 786 788 789 791 792 794 795 797 799 801 802 804 805 806 808 808 810 810 811 812 813 814 815 816 817 818 819 820 821 821 822 823 823 824 825 826 826 827 827 828 828 828 828 828 828 828 828 828 828 829 829 830 830 831 831 832 832 833 834 834 835 835 836 836 837 837 838 838 838 838 838 838 838 838 838
769 769 770 770 773 776 779 781 783 785 787 789 790 791 793 794 796 798 800 802 803 804 806 807 808 809 810 811 812 812 814 815 815 817 818 819 820 821 821 822 823 823 824 825 826 827 827 828 828 828 828 829 829 829 829 829 829 829 829 830 830 831 831 832 832 833 833 834 835 835 836 836 836 837 838 838 839 839 839 839 839 839 839 839 839
769 770 771 771 773 776 779 781 783 785 787 789 791 792 794 795 797 799 801 802 804 805 806 808 809 810 811 812 813 813 814 815 817 817 818 820 820 822 822 823 824 824 825 826 827 827 828 828 829 829 829 830 830 830 830 830 830 830 830 831 831 832 832 833 834 834 835 835 837 837 837 837 837 838 839 839 840 840 840 840 840 839 839 839 840
769 771 771 772 774 776 779 781 783 785 787 789 790 793 794 796 798 799 801 803 805 806 807 808 809 810 811 812 813 814 815 816 817 818 819 820 821 822 823 824 824 825 826 827 827 828 829 829 829 830 830 830 831 830 830 830 830 831 831 831 832 832 833 834 834 835 835 836 837 838 838 838 838 838 840 840 840 840 840 840 840 840 840 840 840
770 771 772 773 774 777 780 781 784 785 787 789 791 793 794 796 798 800 802 804 806 807 808 809 810 811 812 813 814 815 816 817 818 819 820 820 822 822 823 824 825 826 826 827 828 829 829 830 830 830 831 831 831 831 831 831 831 831 831 832 832 833 834 834 835 835 835 836 838 838 838 838 838 839 840 841 841 841 840 841 841 841 841 841 841
771 772 773 774 775 778 780 783 784 786 788 789 791 793 795 797 799 801 802 804 806 807 809 810 811 812 813 814 815 816 816 817 818 819 820 821 822 823 824 824 825 826 827 828 828 829 830 830 831 831 832 831 832 833 832 832 832 832 832 832 833 834 834 835 835 836 835 835 837 838 839 839 839 839 840 842 841 841 841 841 841 842 842 842 842
772 773 774 775 777 780 781 784 785 787 789 790 792 794 796 797 799 801 803 805 807 808 809 811 812 813 814 814 815 816 817 818 819 820 821 822 823 824 825 825 826 826 827 828 828 829 830 831 831 831 832 832 833 833 833 833 833 832 832 833 833 834 835 835 836 836 836 836 837 838 839 839 839 840 840 842 842 841 841 841 842 842 842 842 843
773 774 774 776 778 781 783 785 787 789 790 792 794 795 797 798 800 801 803 806 807 809 810 811 812 813 814 815 816 817 818 819 820 821 822 823 824 824 825 826 826 827 827 828 828 829 830 831 831 832 832 833 833 833 834 834 834 833 833 833 834 835 835 835 836 837 837 837 837 838 838 839 839 840 840 842 842 842 842 842 843 843 843 843 843
774 775 776 778 780 783 785 787 788 790 791 793 795 796 798 799 801 802 804 806 808 809 811 812 813 814 815 815 817 817 819 819 820 821 822 823 824 825 825 826 827 828 828 828 829 829 830 831 832 832 832 833 833 833 834 834 834 834 834 834 834 835 835 836 837 837 838 838 838 838 839 839 840 840 840 842 842 843 843 843 843 844 844 843 844
774 775 777 778 781 784 785 788 789 790 792 794 795 797 799 800 801 803 805 806 808 810 811 813 813 814 815 816 817 818 819 820 821 822 823 824 824 826 826 827 827 828 828 829 829 830 831 831 832 832 833 833 833 834 834 834 834 834 835 835 835 836 836 836 837 837 838 838 838 839 839 840 840 840 841 842 843 843 844 844 844 844 844 844 844
776 776 779 780 782 785 787 789 790 792 793 794 796 797 799 801 802 803 805 807 808 810 811 813 813 815 816 817 818 819 820 820 822 822 823 824 825 826 826 827 828 828 829 829 829 830 831 831 832 833 833 833 833 834 834 834 834 834 835 835 836 836 837 837 837 837 838 838 838 839 840 840 840 840 841 842 843 843 844 844 845 845 845 845 845
781 779 781 783 784 787 789 791 792 793 794 796 797 798 800 801 803 804 805 807 809 810 812 813 814 815 816 817 819 819 820 821 822 822 823 824 825 826 827 828 828 829 829 829 830 830 831 832 833 833 834 834 834 834 834 835 834 834 834 835 836 837 837 838 838 838 838 838 838 839 839 840 840 841 841 842 843 843 844 845 845 846 845 845 845
788 786 785 786 788 789 790 792 793 794 795 796 797 799 801 801 803 804 806 808 809 811 812 813 814 815 816 817 819 820 820 821 822 822 823 824 825 826 827 828 828 829 829 829 830 830 831 832 833 833 834 834 834 835 835 835 835 834 834 835 836 837 837 838 838 837 838 838 838 839 839 840 841 841 841 842 843 843 844 845 845 846 846 846 846
791 791 789 789 790 791 791 792 793 795 796 797 799 800 801 802 804 805 807 808 809 811 812 813 814 815 816 817 818 819 820 821 821 822 823 824 825 826 827 827 828 829 829 830 830 831 831 832 833 834 834 835 835 835 836 836 836 835 835 836 836 837 837 838 838 837 838 838 839 839 840 840 841 841 841 842 843 843 844 845 845 846 846 847 847
786 789 790 792 791 792 792 792 793 794 796 797 799 800 802 803 804 806 807 809 810 811 812 813 814 815 816 817 818 819 820 821 821 822 823 824 824 826 827 827 828 828 829 830 830 831 831 832 833 834 834 835 835 836 836 836 836 836 836 836 837 837 837 839 839 838 838 837 838 839 840 840 841 841 841 842 843 844 844 845 845 846 846 847 847
786 789 791 792 792 792 792 792 793 794 796 797 799 800 802 803 805 807 808 810 811 811 812 813 814 815 816 817 818 819 820 821 822 822 823 824 824 825 826 827 828 828 829 830 830 831 831 832 833 834 834 835 835 836 836 837 837 837 837 837 837 838 838 839 840 839 838 837 838 838 839 840 840 841 841 842 843 844 844 845 845 846 847 847 847
788 790 790 792 792 792 792 792 793 794 796 797 799 800 802 803 805 806 808 810 811 812 813 813 814 815 816 817 817 818 820 821 822 823 823 824 824 825 826 826 827 828 829 829 830 830 831 832 833 834 834 835 836 836 837 837 837 837 838 837 838 838 838 840 840 840 839 838 838 838 839 840 840 841 841 842 843 844 844 845 845 846 847 847 847
788 790 790 791 791 792 791 792 793 794 796 797 799 800 802 803 805 806 808 810 811 812 813 813 814 815 816 817 818 819 820 821 822 823 823 824 824 825 826 826 827 827 828 829 829 830 830 831 832 833 834 835 836 836 837 837 838 838 838 838 838 838 838 840 840 840 839 839 839 839 839 840 840 841 841 842 843 844 844 845 845 846 847 847 848
789 790 791 791 791 791 791 792 793 794 795 797 798 800 802 803 805 806 807 809 811 812 813 813 813 814 816 816 818 819 820 821 822 823 824 824 824 825 826 826 826 827 827 828 829 830 830 831 832 833 834 835 835 836 837 837 838 838 838 839 838 838 839 840 841 841 840 840 839 839 840 840 840 841 841 841 842 843 844 845 845 846 847 847 848
792 791 792 792 792 791 791 792 793 794 795 796 798 799 801 803 804 806 808 809 811 812 812 813 813 814 815 816 818 819 820 822 823 824 824 824 824 825 825 825 826 826 827 828 829 830 830 831 832 833 834 835 835 836 836 837 838 838 839 839 839 839 839 840 841 841 841 840 840 840 840 840 840 841 841 841 842 843 844 845 846 846 847 847 848
795 794 793 792 792 791 791 792 793 794 795 796 797 799 800 802 804 805 807 809 810 811 811 812 813 814 815 816 818 819 821 822 823 824 824 824 824 824 825 826 827 827 827 828 829 830 830 831 832 833 834 834 835 836 836 837 837 838 838 839 840 840 840 841 841 841 842 841 841 841 841 840 841 841 842 842 843 843 844 845 845 846 847 847 848
796 795 792 792 791 791 791 791 793 793 794 795 796 799 800 802 804 805 807 808 809 810 811 812 813 814 815 816 817 819 821 822 824 823 824 824 823 824 825 826 827 827 828 828 829 830 830 831 832 833 833 834 835 835 836 837 837 838 839 839 840 840 840 841 841 841 842 842 842 842 841 841 841 841 842 842 843 844 844 844 845 846 846 847 847
795 793 791 791 790 790 791 791 792 794 795 796 797 799 800 802 804 806 807 808 809 810 811 811 813 814 815 816 817 819 820 822 823 823 824 824 823 824 826 826 826 827 828 828 829 830 831 831 831 832 833 833 834 835 836 837 838 838 839 839 840 840 840 841 841 841 842 842 842 842 842 842 842 842 842 842 843 844 844 844 845 845 846 847 847
794 792 790 789 790 790 791 792 793 794 795 797 798 799 801 802 804 806 807 808 809 809 810 811 812 813 815 816 817 819 820 822 823 823 824 824 824 825 826 826 827 827 828 828 829 830 831 831 832 832 832 833 834 835 835 837 838 838 838 839 839 840 840 841 841 842 842 842 842 843 843 843 843 843 842 843 843 844 844 844 845 845 846 846 847
793 790 789 788 790 791 792 793 794 795 797 798 799 800 801 803 804 806 807 808 808 809 810 811 812 813 815 816 818 819 820 821 822 823 824 824 824 825 826 827 827 827 827 828 828 829 830 831 832 832 832 833 834 835 835 836 837 837 838 838 839 840 840 841 842 842 842 842 842 843 843 843 843 843 843 843 843 844 845 845 845 845 845 846 847
789 787 788 789 790 792 793 793 795 796 798 799 800 800 801 803 804 805 806 807 808 809 810 811 812 813 814 816 818 819 819 821 822 823 824 824 825 826 827 827 827 827 827 827 828 829 830 831 831 832 832 833 834 835 835 836 836 837 837 838 839 839 840 840 841 842 842 842 842 843 843 843 843 842 843 843 843 844 845 845 845 845 845 846 846
785 786 787 789 790 792 793 794 796 797 799 800 800 801 802 803 804 805 806 807 808 809 810 811 812 813 814 815 817 818 819 820 821 822 823 824 824 825 826 827 827 827 827 827 828 828 829 831 831 832 832 832 833 834 835 835 835 836 837 838 838 839 840 840 840 841 842 842 842 843 843 843 843 843 843 843 843 844 845 845 845 845 845 845 846
787 787 787 788 790 793 794 796 797 798 800 801 801 801 802 803 804 805 806 807 808 808 809 811 812 813 814 816 817 818 819 820 821 822 823 823 824 824 825 826 826 826 826 827 827 828 829 830 831 831 832 832 832 833 833 834 834 835 836 837 838 838 839 840 839 840 841 841 842 842 842 843 843 843 843 843 843 844 844 845 845 845 845 845 846
793 789 787 788 790 792 794 796 798 800 801 802 802 802 803 804 804 805 806 806 807 808 809 810 812 813 814 815 817 818 819 820 821 822 823 823 823 823 824 825 826 826 826 826 827 828 829 830 830 830 830 831 831 831 832 833 834 834 835 836 837 837 838 838 839 838 839 840 841 841 842 842 842 843 843 843 843 844 844 845 845 845 845 845 846
798 790 787 789 790 791 793 796 799 800 801 802 803 803 804 805 805 805 806 806 807 808 809 810 811 812 813 815 816 817 818 818 820 821 822 822 822 823 823 824 825 825 825 825 826 827 828 829 829 829 829 830 830 831 831 832 833 833 834 835 836 836 836 837 838 838 838 838 839 840 841 841 841 842 842 843 843 844 844 845 845 846 845 845 845
798 790 788 790 790 791 793 796 798 800 801 802 803 803 804 805 806 806 806 806 807 807 809 810 811 812 813 814 816 817 817 818 819 820 821 821 821 821 822 823 823 823 824 824 825 826 827 828 828 829 829 829 830 830 831 832 832 832 833 833 834 834 835 836 837 837 838 839 839 839 840 840 841 841 842 842 843 843 844 845 845 845 845 845 846
793 789 789 790 791 792 793 796 799 800 801 802 803 803 804 805 806 806 806 806 807 808 809 810 811 812 813 814 815 816 815 815 816 817 818 819 820 820 821 822 822 822 823 823 824 825 826 827 828 828 829 829 829 828 829 829 830 831 832 832 832 832 833 834 835 836 838 839 839 839 839 839 840 840 840 841 842 842 843 844 845 845 845 845 846
789 788 789 790 792 793 795 797 799 800 801 802 803 803 804 805 806 806 806 806 807 808 809 810 811 813 814 814 815 815 815 814 814 815 817 819 819 819 820 822 822 822 822 823 823 824 825 826 827 828 828 828 828 828 827 828 828 829 830 831 832 832 832 833 834 835 836 838 839 839 839 839 839 839 839 840 840 841 842 843 844 844 845 845 846
786 788 790 791 793 794 796 798 799 800 801 801 802 803 804 805 806 806 806 806 808 809 810 810 811 813 814 815 815 816 816 816 816 817 818 819 819 820 820 821 821 820 821 822 823 824 825 826 826 827 828 828 828 828 828 828 828 829 830 830 831 832 832 832 833 834 835 836 837 838 839 838 838 838 838 839 839 840 841 842 843 844 844 845 845
785 788 790 792 794 795 797 798 798 798 799 801 802 803 805 806 806 807 806 806 807 808 810 810 811 813 813 814 815 816 817 817 818 818 818 819 819 818 819 819 819 819 820 822 823 824 825 826 826 827 828 828 828 828 828 828 828 828 829 829 830 831 831 831 832 833 835 836 836 837 838 837 838 838 838 838 839 839 840 841 841 842 843 843 844
784 787 790 793 794 796 796 797 797 797 798 800 802 804 805 806 806 806 806 807 808 808 810 811 811 812 813 814 814 815 816 816 816 817 818 818 817 816 816 817 818 818 819 821 822 824 825 826 826 827 828 828 828 828 829 828 828 828 829 829 829 829 830 830 831 832 833 834 835 835 836 837 838 838 838 838 839 839 839 840 840 840 841 841 842
784 787 790 793 794 795 795 795 796 796 797 799 802 803 804 805 806 806 806 807 808 809 810 811 812 813 814 815 815 816 816 816 816 817 817 817 817 817 817 817 817 818 819 821 822 823 824 825 826 827 827 827 827 828 828 828 828 828 829 829 829 829 830 830 830 831 832 833 834 834 834 835 836 837 838 838 838 838 839 839 839 840 840 841 841
783 787 789 792 794 794 795 795 796 796 797 799 801 802 803 804 804 805 806 807 808 809 810 811 812 813 815 816 817 817 817 818 818 818 818 818 819 819 819 819 819 819 820 822 823 823 824 824 825 826 827 827 827 827 828 828 828 828 828 828 829 829 829 829 829 829 830 832 833 833 833 834 835 836 837 837 837 837 837 838 839 839 840 841 841
783 786 788 791 792 793 795 795 796 796 797 799 800 801 803 803 804 804 806 807 809 810 811 812 813 814 815 817 818 819 819 819 820 820 820 820 821 821 821 821 822 821 821 822 823 823 824 824 824 825 826 827 827 827 828 828 828 828 828 829 830 830 830 829 829 829 830 831 832 832 833 833 834 834 835 836 836 835 836 837 838 838 839 840 840
782 784 787 789 791 793 794 795 796 797 798 799 800 801 802 803 804 805 806 807 809 811 811 813 814 815 817 818 819 819 820 820 820 821 822 822 822 822 822 822 822 822 822 823 823 823 824 824 824 825 825 825 826 827 827 828 828 828 829 830 831 832 833 831 830 830 831 831 832 832 833 833 833 833 833 834 835 835 835 836 836 837 837 838 839
781 783 785 787 790 792 794 795 796 797 798 799 799 800 801 802 803 805 806 807 809 810 812 814 815 816 817 818 819 820 820 820 821 822 822 823 823 823 823 823 823 823 823 823 823 824 824 824 824 824 824 825 825 826 827 827 828 828 829 831 832 834 834 832 832 832 831 831 832 832 832 833 833 833 832 833 834 834 834 835 835 835 836 836 837
779 782 784 786 788 791 792 794 795 796 797 798 798 799 800 801 802 803 805 806 808 810 811 813 814 816 817 818 819 820 820 821 821 822 823 823 823 823 823 823 823 823 822 823 823 824 824 824 824 824 824 824 825 826 827 827 828 828 829 829 830 832 832 832 833 833 832 832 832 832 832 832 832 832 832 832 832 833 833 833 833 834 834 834 834
778 781 783 785 787 789 791 792 794 795 796 797 797 798 799 800 801 802 804 805 806 808 810 812 813 815 816 818 819 820 821 821 822 822 823 823 823 823 823 823 823 823 823 823 823 824 824 824 824 824 824 824 824 825 826 827 827 828 829 828 828 830 831 831 832 833 833 833 832 832 832 832 832 832 831 832 832 832 832 832 832 832 832 832 833
777 779 782 784 785 787 789 791 794 795 796 796 797 797 798 799 801 802 804 804 805 807 809 811 813 814 816 817 819 820 821 821 822 822 823 823 823 823 823 823 824 824 823 823 824 824 824 824 824 824 824 824 824 824 825 826 827 828 828 828 829 831 831 831 831 832 833 833 832 831 831 831 831 831 831 831 831 831 831 831 831 831 830 830 831
775 777 779 781 783 785 788 790 794 796 797 797 797 797 798 798 800 802 803 804 805 806 808 810 812 813 815 817 818 819 820 821 822 822 823 823 823 824 823 824 824 824 824 824 824 824 824 824 825 825 825 824 824 824 825 826 826 827 828 829 830 831 831 831 831 831 832 833 833 832 831 831 830 829 830 830 830 830 829 829 829 829 829 829 830
774 776 778 780 782 784 785 788 793 796 797 798 797 797 798 798 799 801 801 803 803 805 807 809 811 812 814 816 817 819 820 821 821 822 822 823 823 824 824 824 825 825 825 825 825 825 825 825 825 826 825 825 825 826 826 827 827 827 828 828 829 830 831 831 831 831 831 832 832 832 831 831 830 829 828 829 829 828 828 827 827 827 828 828 828
772 774 777 779 782 783 781 785 793 797 797 798 798 797 798 798 798 800 800 801 802 804 806 808 810 811 813 814 816 818 819 820 821 822 823 823 824 824 825 825 826 826 826 826 826 827 827 827 827 826 826 826 827 827 827 828 828 828 828 828 829 830 831 831 831 831 831 832 832 832 831 830 829 828 828 828 828 827 827 826 825 825 825 826 827
Wind_Speed
30 33 32 28 26 24 22 20 19 19 19 20 20 20 20 20 19 20 19 18 17 16 16 15 15 13 12 12 14 15 15 15 14 15 16 16 16 16 16 15 15 15 15 15 15 14 14 14 15 17 17 17 17 17 17 16 16 16 17 17 18 18 19 20 21 21 20 20 20 19 18 17 17 17 17 18 17 16 17 16 16 16 16 17 17
31 34 33 29 27 24 23 21 20 20 19 21 21 20 20 19 19 20 20 19 17 17 17 15 14 14 12 11 12 13 14 14 14 14 14 15 16 15 15 14 14 13 13 14 14 14 14 14 15 16 16 16 15 15 15 15 15 15 16 17 18 18 18 18 19 20 20 20 19 19 18 17 17 17 17 17 17 16 16 16 15 16 16 16 16
33 33 33 30 28 25 24 22 22 20 20 20 20 20 19 19 19 20 20 19 18 17 17 16 15 14 13 11 11 12 13 13 13 13 14 14 14 14 14 13 12 12 12 13 13 15 15 15 15 15 15 15 14 14 14 13 15 15 15 17 19 19 18 18 19 20 20 20 19 18 18 18 17 16 17 17 16 16 15 15 15 16 16 15 15
33 32 32 31 28 26 24 23 22 21 21 20 20 20 19 19 19 19 19 19 18 17 17 16 14 14 13 12 11 11 12 12 12 12 13 12 12 12 12 11 11 11 12 12 13 15 15 15 14 14 14 14 13 13 13 12 13 15 16 18 19 19 18 19 21 21 20 20 19 18 18 19 17 16 16 17 16 16 15 15 15 16 15 15 15
32 31 32 31 29 26 24 23 22 21 20 20 20 19 19 19 19 19 19 19 18 17 17 15 14 14 14 13 12 12 12 12 12 12 12 11 10 9 9 10 10 10 11 12 14 15 14 14 13 13 12 13 12 11 12 11 12 15 16 18 18 19 19 20 21 21 20 19 19 18 18 17 17 16 15 15 15 15 15 15 15 15 15 15 15
31 31 32 31 29 26 25 23 22 21 20 20 20 19 19 18 18 18 18 18 18 17 16 15 13 13 14 13 13 13 13 12 12 12 11 10 9 8 8 8 9 10 11 12 14 13 13 12 12 12 12 11 11 10 11 10 12 15 17 17 17 18 17 18 19 20 18 17 17 16 17 16 15 15 14 14 14 13 14 14 14 13 14 14 14
32 31 31 31 29 27 25 23 22 21 20 20 19 19 19 18 18 18 18 18 17 17 16 15 13 12 14 14 14 13 13 12 12 12 11 11 10 9 9 9 9 10 10 11 12 11 11 11 11 11 11 11 10 10 10 11 13 15 17 16 16 15 14 14 14 14 13 14 14 13 15 14 13 15 14 12 12 12 12 13 13 13 13 13 14
31 30 30 31 29 27 25 23 22 21 21 20 19 19 19 19 18 17 17 17 17 17 16 15 13 12 14 15 14 13 13 12 12 13 13 12 11 10 10 9 9 9 10 10 10 10 10 10 10 10 10 10 9 9 9 10 12 15 16 15 14 13 12 11 10 9 7 9 12 13 12 12 12 14 13 12 12 10 11 12 13 13 13 13 13
29 29 30 30 28 27 25 24 22 21 21 20 20 19 19 19 18 17 17 17 17 16 16 15 14 14 15 15 15 14 14 13 13 12 12 11 10 9 9 9 9 9 9 10 10 8 8 10 10 10 10 9 8 8 8 8 10 14 15 13 13 12 11 9 8 7 5 6 12 14 11 12 13 13 12 11 11 9 9 11 12 13 13 13 13
27 27 30 29 28 26 24 24 22 22 21 20 20 19 20 19 18 18 17 17 16 16 16 15 15 15 15 15 15 15 14 13 13 12 11 10 9 8 7 7 8 8 9 9 9 8 9 10 10 9 8 6 6 5 6 6 8 12 13 13 12 11 9 9 9 10 11 14 18 15 11 11 12 11 12 11 10 9 9 10 11 12 13 13 13
25 27 29 29 27 26 25 23 22 21 20 20 19 19 19 19 18 18 18 17 16 16 16 16 16 16 16 15 14 14 13 13 12 11 10 9 8 7 6 6 7 8 9 9 8 9 10 10 9 7 5 4 4 3 3 4 6 10 12 13 12 10 9 9 11 12 16 21 20 14 11 10 10 9 10 11 9 8 8 9 10 12 13 13 13
25 27 29 28 26 25 24 23 22 21 20 19 19 19 19 19 18 18 18 17 17 16 16 16 16 16 15 14 13 12 12 12 11 10 9 8 7 7 6 6 7 8 8 8 7 8 9 8 6 5 4 3 3 3 2 3 5 8 12 13 10 9 9 11 13 13 17 20 17 13 10 8 8 7 10 11 10 9 9 10 11 11 12 12 12
25 28 29 27 26 25 24 23 22 20 20 19 19 19 19 19 19 18 18 17 17 16 16 16 15 15 14 13 12 12 12 11 10 9 8 8 7 6 6 6 7 7 7 8 6 7 7 5 4 4 3 3 4 4 3 3 3 7 11 12 10 9 10 11 13 14 17 18 14 11 8 6 6 8 11 12 10 11 11 11 11 10 11 11 11
27 28 29 27 26 25 24 23 21 20 19 19 19 19 19 19 19 19 18 17 17 16 16 15 14 13 13 12 11 11 11 10 10 8 7 6 6 6 6 6 7 7 7 7 6 6 6 5 5 5 4 4 5 5 4 3 3 7 11 11 11 10 10 10 11 12 16 16 13 10 7 6 7 9 12 12 11 11 11 11 11 10 10 11 11
28 29 28 27 26 24 23 22 21 20 19 19 19 19 19 19 18 18 18 17 16 16 15 14 13 12 12 11 11 10 9 9 8 7 6 5 5 6 7 7 7 7 8 8 7 6 5 6 6 6 5 5 7 7 6 4 4 7 11 11 10 9 10 11 13 14 19 15 12 9 8 8 7 9 11 12 11 11 11 10 10 10 9 10 10
25 28 28 26 25 24 23 21 20 20 19 19 18 18 18 18 18 18 18 17 16 15 15 14 13 12 11 10 10 9 8 7 7 6 5 5 4 5 6 7 7 7 8 7 6 6 6 6 7 6 6 7 9 7 6 5 4 7 11 11 9 8 9 13 14 16 19 13 12 10 8 7 6 8 11 12 11 11 11 10 10 10 10 9 9
19 23 27 25 24 24 22 21 20 19 18 18 18 17 17 18 18 18 18 17 16 15 14 14 13 12 11 10 9 9 8 7 7 6 5 5 4 4 5 7 7 6 8 7 6 6 6 6 6 6 7 8 8 7 6 4 4 6 10 11 9 7 8 12 12 14 17 13 11 9 8 7 6 6 9 11 11 11 11 10 9 9 10 9 9
18 20 25 24 24 23 23 21 20 19 18 18 17 17 17 17 17 17 17 16 15 15 14 13 12 11 10 10 9 9 9 8 8 7 6 5 4 4 5 6 7 6 7 6 6 6 6 6 6 6 6 6 6 5 5 4 4 6 9 10 8 6 8 12 12 14 16 12 11 9 8 6 5 4 7 11 11 11 10 10 9 9 9 9 8
25 25 24 24 23 23 23 22 20 20 19 18 17 16 16 17 17 17 16 15 15 14 13 12 12 11 10 9 8 8 8 7 7 7 7 7 5 4 4 5 6 6 6 6 6 6 6 5 5 6 6 5 4 4 4 4 4 4 8 9 7 6 8 11 9 12 14 11 9 8 7 5 3 3 6 11 12 11 11 10 9 9 8 8 8
27 26 24 22 23 24 23 22 21 20 19 19 18 17 16 16 16 16 15 15 14 13 13 12 11 10 10 9 9 9 8 8 7 7 7 7 6 5 4 5 6 6 6 6 6 5 5 4 4 5 6 5 4 3 3 3 4 3 6 7 5 5 6 7 4 11 12 10 8 7 7 4 3 3 6 11 12 11 11 10 9 9 8 8 8
24 23 22 22 22 24 23 22 21 20 19 18 18 18 17 17 16 16 15 15 14 13 13 12 11 10 10 10 10 9 8 8 7 7 7 7 8 7 5 6 6 7 7 7 6 6 6 5 5 5 5 5 4 3 3 4 4 3 5 7 5 4 5 6 3 11 12 9 8 7 7 4 3 4 7 11 13 11 11 10 10 9 9 8 8
23 22 22 23 24 23 23 22 20 20 19 18 18 17 17 17 16 16 15 14 14 13 12 12 11 10 10 10 10 8 7 7 7 7 7 7 8 8 6 6 6 7 7 8 7 7 7 6 6 6 6 4 3 3 3 3 3 2 3 6 6 3 3 6 2 13 11 9 8 6 6 4 4 6 8 11 13 12 11 10 10 9 9 9 8
23 24 23 23 25 25 23 22 20 20 19 18 18 17 17 17 16 16 15 14 13 12 13 13 12 12 11 11 9 7 7 7 7 7 7 8 8 8 7 7 7 7 8 8 8 7 6 6 5 5 6 5 4 4 3 3 3 2 2 4 5 4 2 5 1 12 10 8 8 6 6 5 6 8 10 10 11 12 11 10 10 9 9 9 9
24 26 25 24 25 25 23 21 20 20 20 18 17 17 17 17 17 17 16 15 14 13 14 14 14 12 12 11 9 8 7 6 6 6 6 8 8 8 8 9 8 8 8 8 8 7 6 5 5 5 6 6 5 5 4 3 2 2 2 3 3 3 3 4 0 10 10 9 8 7 6 6 8 9 10 10 11 12 11 11 10 9 9 9 9
23 25 25 24 25 24 22 21 20 20 20 18 18 17 17 18 18 17 17 17 16 15 15 15 14 13 12 11 10 9 7 6 6 6 7 8 9 9 10 9 8 9 8 8 7 7 6 5 5 5 6 6 5 5 4 3 3 4 4 3 3 3 2 3 2 6 9 10 7 6 5 7 9 9 10 11 11 12 12 12 11 10 10 9 9
18 23 25 24 23 22 21 21 20 20 20 19 18 17 17 19 19 17 17 17 16 16 16 15 15 14 13 12 11 9 8 6 6 8 8 8 10 10 10 9 8 9 9 7 6 6 6 5 5 4 5 5 5 5 4 5 6 6 5 4 4 4 4 4 5 5 8 9 6 6 5 7 10 12 12 11 11 12 11 11 12 11 10 9 9
19 21 23 23 21 21 22 21 21 20 19 18 18 16 17 19 19 16 16 17 16 16 17 16 16 14 13 13 11 9 8 7 7 9 9 10 12 11 10 10 10 9 9 9 8 7 6 5 5 4 3 5 5 4 5 7 9 9 6 6 6 6 5 6 7 7 9 7 6 6 5 7 10 13 13 11 11 12 11 11 11 11 11 9 8
20 21 21 22 22 21 22 22 21 21 19 18 18 17 16 18 17 15 14 16 16 16 15 15 15 13 13 12 10 10 10 7 8 9 9 11 13 12 11 10 11 11 10 10 10 8 7 7 7 6 4 6 6 6 8 8 9 9 7 6 6 6 8 6 5 8 9 6 6 5 4 5 8 11 11 11 12 12 10 10 10 11 11 11 9
20 24 24 23 22 22 22 21 20 20 19 18 18 18 16 16 16 15 14 15 15 14 13 13 12 11 11 11 9 10 10 8 9 10 10 12 13 12 10 10 10 10 10 10 10 9 8 8 7 6 5 7 7 7 10 9 7 8 9 7 5 5 9 7 6 9 8 6 5 4 4 4 6 8 9 10 11 13 11 10 10 8 9 11 11
19 27 27 25 23 23 22 20 20 20 19 18 16 16 15 15 15 15 15 15 16 14 13 12 10 10 11 11 10 9 9 8 9 9 10 11 12 11 9 9 9 9 9 10 11 9 8 8 7 6 6 6 7 8 9 10 9 9 9 7 4 3 6 7 7 7 7 6 5 4 4 3 5 7 9 8 8 12 13 11 11 8 6 9 11
13 24 21 21 26 24 22 19 19 19 18 16 14 14 14 13 14 14 14 14 15 14 13 12 10 9 10 10 9 9 8 9 9 9 9 10 10 10 9 8 8 9 9 9 10 9 8 9 7 6 6 7 9 8 5 8 9 9 10 8 6 4 4 8 9 9 8 6 5 5 5 4 5 7 8 8 7 11 13 11 11 9 6 8 9
3 12 11 19 28 23 20 19 19 19 17 15 12 13 14 13 12 12 12 12 13 12 12 12 11 9 9 9 10 10 10 10 10 10 10 10 10 10 9 8 7 9 9 8 9 9 8 8 7 7 9 10 9 7 4 5 7 7 9 8 8 9 9 10 10 10 10 9 9 8 6 6 6 6 7 8 8 9 11 11 11 9 6 8 9
13 8 16 23 30 26 25 20 19 21 18 16 12 12 15 13 12 11 9 10 11 12 13 13 12 10 9 10 11 12 11 11 11 11 10 10 10 9 8 9 8 8 8 8 9 9 7 6 6 9 11 11 9 8 6 5 7 6 5 5 7 8 10 13 13 12 12 10 11 11 8 8 7 7 7 7 8 9 10 10 12 10 6 8 10
12 14 24 24 28 26 24 22 21 21 18 17 13 12 16 14 12 10 9 9 8 10 13 14 13 11 9 9 11 12 11 11 11 9 9 10 9 9 8 9 9 8 9 10 11 10 6 5 7 9 11 10 9 9 7 5 6 5 3 5 8 4 3 8 12 11 14 13 12 12 11 11 9 8 7 7 8 8 10 10 11 11 7 8 10
11 19 24 22 24 23 22 20 19 18 18 18 14 14 16 15 13 10 9 8 8 10 13 13 12 12 10 9 9 10 10 10 10 8 9 11 11 9 8 9 9 9 10 11 13 10 7 7 8 8 8 7 5 5 5 6 3 4 3 3 6 4 3 2 3 2 8 13 14 15 13 13 12 9 8 8 8 8 10 10 10 11 9 8 10
16 22 21 22 22 21 21 19 18 18 18 18 15 17 18 17 13 9 8 7 8 12 12 10 10 11 10 8 7 7 8 8 8 8 9 10 10 9 8 8 9 9 9 10 13 12 8 8 8 7 6 3 3 2 6 9 4 4 4 1 3 6 1 3 3 3 3 4 9 16 17 15 13 12 10 8 8 8 9 10 10 11 10 9 9
21 22 21 23 22 22 21 19 19 19 19 18 16 18 18 16 14 11 11 8 8 11 12 13 13 11 8 7 5 6 7 7 7 7 8 9 9 9 8 8 9 9 8 9 13 14 10 9 8 7 6 5 5 4 6 9 7 4 5 4 1 3 1 2 3 1 1 2 3 7 17 18 15 13 12 10 8 9 9 10 10 11 11 10 10
21 20 21 22 22 22 20 20 20 19 20 18 16 16 15 15 15 14 15 15 12 11 12 14 14 13 11 9 9 9 8 7 8 8 9 10 10 10 9 9 10 9 8 8 11 14 12 10 9 8 7 7 7 6 6 6 6 5 4 5 6 4 3 1 0 1 2 1 7 4 6 15 18 15 12 11 10 10 10 10 11 11 12 11 11
22 20 20 21 22 21 20 21 21 21 21 18 17 17 15 15 15 14 16 19 17 15 15 13 12 11 11 11 10 10 9 8 9 7 7 8 8 8 7 8 9 8 8 7 9 13 12 11 9 9 8 8 8 7 7 5 5 5 3 4 6 4 4 2 2 2 3 2 4 6 5 5 15 16 14 13 11 11 11 12 12 12 13 12 12
24 22 21 21 22 21 21 21 22 22 21 19 18 18 17 16 16 16 17 17 18 18 18 16 14 13 12 11 10 9 8 8 9 7 6 5 2 2 4 6 7 7 8 7 7 10 11 12 10 9 9 9 9 9 7 6 6 6 3 3 4 3 4 5 4 3 3 2 3 6 5 2 4 7 12 15 15 14 13 13 14 14 14 13 13
26 24 23 23 22 22 21 21 22 22 21 21 20 18 18 18 17 18 18 17 18 18 17 15 15 14 14 13 12 11 9 8 7 6 4 4 4 2 2 4 6 7 7 7 7 8 9 10 9 9 9 9 10 9 8 6 5 5 3 2 2 3 4 7 7 6 4 3 3 5 7 6 3 1 4 7 9 12 14 17 18 17 17 15 14
28 26 25 24 22 21 21 22 22 22 22 21 20 19 18 18 17 18 19 19 17 15 13 12 12 11 12 13 11 10 9 7 7 5 4 4 4 3 2 2 2 4 5 4 6 8 8 8 8 9 11 9 8 8 8 7 5 6 5 2 1 3 4 6 9 10 10 8 7 7 8 8 6 4 2 2 2 1 7 13 16 19 20 18 17
28 27 26 24 23 21 20 21 21 22 20 17 18 19 17 17 18 19 22 20 17 15 15 15 14 13 13 12 12 12 10 8 9 8 7 6 5 5 4 4 3 1 3 4 4 6 7 8 8 10 11 8 7 7 7 7 6 6 5 2 1 1 2 4 5 8 9 12 13 10 9 8 7 7 6 5 5 3 1 4 7 11 15 17 19
28 27 26 25 23 22 21 21 21 20 17 17 19 19 17 19 21 22 23 22 20 19 17 16 15 15 15 13 13 13 12 11 12 10 9 8 6 5 5 5 5 3 1 3 5 5 5 7 8 8 7 7 7 7 7 7 9 7 3 1 1 2 1 2 3 3 4 7 10 10 9 8 6 6 6 5 6 6 4 3 3 4 7 11 14
27 26 27 26 24 23 22 22 21 18 17 19 21 20 21 23 25 24 24 23 22 20 18 17 16 16 15 14 13 12 12 13 14 13 11 11 10 7 6 7 8 7 5 5 5 4 4 4 6 7 7 8 7 6 6 7 9 8 3 3 2 1 1 2 1 2 3 5 6 7 7 6 4 4 4 4 5 7 6 6 7 7 7 7 11
27 26 26 26 24 24 23 22 21 19 19 20 20 21 22 24 24 24 24 23 21 19 18 20 18 16 15 14 13 12 11 12 12 12 12 13 12 9 8 9 10 11 9 8 8 8 9 8 6 5 6 8 8 6 6 5 7 9 6 5 3 1 2 2 1 1 2 4 5 6 5 5 5 4 4 4 5 6 6 6 7 10 10 9 10
26 25 25 26 25 24 23 23 22 20 21 22 21 21 21 21 20 21 23 23 21 19 19 20 18 16 16 16 15 14 13 13 12 11 11 12 12 11 9 11 13 15 13 13 12 10 10 10 11 10 7 6 7 7 7 6 5 6 7 6 4 2 2 2 2 1 0 2 4 5 4 5 6 7 7 7 6 5 5 5 5 7 9 9 11
27 25 24 26 25 25 24 23 22 21 21 22 21 21 21 20 20 21 22 22 22 21 20 19 17 16 18 17 15 15 13 13 13 11 10 10 11 15 14 14 14 13 13 14 14 13 12 11 11 12 11 8 7 7 8 8 7 6 5 6 5 4 3 2 2 2 2 1 2 3 4 4 6 8 9 9 8 7 6 5 5 6 6 7 9
28 26 26 26 24 25 25 22 22 22 21 23 22 21 22 21 22 23 22 23 22 22 20 19 17 17 19 17 15 15 14 13 13 11 10 9 9 14 17 16 14 12 11 12 12 12 13 13 12 12 13 12 9 9 10 9 9 8 6 5 6 6 4 1 1 1 2 2 2 3 3 4 6 8 9 11 9 8 8 7 7 6 6 6 7
27 27 27 25 23 25 27 23 22 24 23 22 23 22 23 24 24 24 25 25 24 21 21 20 19 19 18 16 15 15 14 13 12 12 11 10 9 11 15 16 14 12 12 13 13 12 12 12 12 11 12 13 12 11 11 11 12 12 10 8 7 7 4 2 3 2 1 2 2 2 4 5 5 5 4 8 8 7 8 8 9 9 8 7 7
25 26 26 25 22 23 27 24 22 26 26 24 25 25 25 25 24 25 27 26 25 24 23 22 20 19 18 16 16 15 14 12 12 11 11 11 11 11 13 15 14 12 12 14 13 12 12 12 12 11 10 11 11 12 12 11 12 13 13 13 13 11 8 6 6 8 5 2 1 2 5 7 5 7 7 3 7 8 7 7 8 10 11 10 8
Wind_Direction
151 148 144 147 147 148 149 149 145 142 143 144 144 145 144 141 140 139 137 133 130 128 126 124 122 122 121 118 118 118 117 118 116 112 109 107 104 101 98 95 95 92 92 90 91 86 82 83 84 88 89 90 90 91 94 96 100 104 107 109 108 104 102 99 100 101 100 96 94 92 85 83 80 77 77 78 81 79 76 74 74 75 74 74 72
152 147 144 146 148 149 149 148 144 143 145 145 144 144 143 142 142 140 138 134 131 129 129 127 121 120 123 122 119 119 119 120 121 119 116 113 109 105 102 98 97 95 94 93 94 88 84 83 84 89 90 91 92 94 98 98 97 101 105 107 106 103 102 102 104 105 102 97 95 94 89 87 83 78 77 76 78 76 75 76 75 75 75 76 74
150 148 145 146 148 149 149 148 143 144 146 145 144 144 142 143 142 141 140 136 132 130 131 128 122 118 122 124 120 119 121 121 122 123 121 119 114 109 106 101 99 98 96 94 93 89 87 87 87 88 89 90 91 95 98 98 99 100 103 106 106 105 104 102 102 100 96 92 91 92 93 91 84 79 77 76 77 76 76 77 76 76 76 76 75
149 148 146 147 148 149 148 147 143 145 147 145 144 144 142 142 143 143 141 138 133 131 132 129 123 119 121 125 123 119 121 123 123 126 125 124 118 112 109 104 101 99 99 96 93 90 90 91 90 89 90 92 92 95 98 101 105 105 106 109 109 109 107 104 103 99 93 89 87 86 89 91 87 82 78 77 77 78 76 75 76 76 76 76 75
149 149 148 147 148 149 148 146 144 145 146 146 145 143 142 142 144 144 143 140 134 131 134 131 124 121 122 127 126 119 119 122 122 126 128 129 123 117 115 112 107 100 99 96 93 92 92 91 92 91 91 94 94 96 99 101 106 109 110 113 114 112 110 110 108 104 97 87 84 83 83 86 87 84 79 80 78 77 77 76 77 76 76 75 75
149 150 149 148 148 148 147 145 144 144 144 144 144 143 142 143 145 146 145 141 135 132 134 132 126 122 125 129 129 120 119 123 123 124 126 127 123 121 118 114 109 101 97 95 94 95 93 92 93 94 93 93 93 96 100 100 105 111 114 116 113 112 112 114 114 113 105 90 86 88 86 79 82 86 80 80 79 77 79 77 76 77 77 76 77
150 151 151 149 148 148 147 147 145 143 143 143 143 143 142 143 145 146 145 142 137 134 135 132 127 126 126 130 133 125 123 125 124 124 123 122 118 115 110 106 104 100 98 97 97 95 94 96 98 98 96 94 92 96 101 100 106 116 118 117 114 113 113 113 117 120 118 100 95 101 91 73 77 89 83 80 80 79 81 79 77 79 79 79 78
149 151 152 149 147 148 148 148 146 144 143 144 143 143 143 144 145 145 144 143 139 135 135 132 129 130 128 130 135 133 131 129 127 126 126 126 122 115 111 111 108 106 104 103 102 99 99 102 103 102 99 94 93 97 101 100 108 121 121 120 120 119 118 115 116 119 122 108 108 115 95 73 79 89 88 83 82 86 88 85 81 81 82 81 81
149 151 152 149 148 148 149 149 146 144 144 144 143 143 143 143 145 144 143 142 140 137 134 131 131 132 129 131 134 136 135 133 131 129 130 129 126 122 121 123 120 119 116 113 110 106 108 108 108 106 103 97 93 98 105 102 111 126 127 126 126 124 123 116 108 94 87 120 133 128 103 84 75 75 90 87 87 100 97 89 84 84 85 83 82
148 152 152 148 147 149 150 149 146 143 143 142 140 139 140 141 143 142 142 142 139 137 132 130 131 131 130 131 133 135 135 134 133 132 131 128 126 125 124 127 126 125 118 112 110 113 115 116 115 108 111 105 95 105 117 109 115 130 133 132 129 123 118 109 100 84 93 131 142 131 106 88 67 67 94 95 94 104 98 92 89 87 88 86 84
147 152 151 148 147 149 149 147 145 143 142 139 135 134 135 138 141 141 140 140 136 133 130 130 130 131 132 133 134 134 133 133 132 131 130 128 127 124 121 124 125 123 117 114 120 130 131 128 121 114 121 113 98 109 126 123 120 131 139 136 127 120 113 106 99 91 112 135 140 128 105 85 64 73 103 105 100 101 100 96 96 94 91 90 88
150 153 150 148 147 149 149 147 145 142 140 135 132 131 132 135 137 138 138 136 133 130 129 130 131 133 134 135 134 133 133 132 130 129 129 128 127 123 119 120 125 127 127 129 136 141 145 142 126 118 122 103 89 84 100 120 124 133 142 139 129 122 109 101 93 97 131 143 139 125 105 82 70 90 114 111 104 100 99 95 97 99 97 95 93
149 151 149 148 148 150 149 148 146 142 138 133 132 130 130 132 133 135 135 133 130 130 131 130 131 133 134 135 133 133 133 131 129 128 127 124 121 120 120 123 130 134 136 139 141 139 149 158 138 126 117 90 70 59 62 83 118 138 146 142 134 123 102 101 92 100 141 147 133 121 104 82 89 119 124 114 108 103 101 97 98 98 101 100 97
148 149 150 150 149 152 151 149 146 143 140 137 136 133 133 134 134 134 133 133 132 133 132 131 132 132 134 133 133 133 132 131 128 127 124 120 116 118 124 131 137 141 138 140 147 139 141 149 133 124 114 89 72 66 70 74 105 138 151 148 135 118 94 95 84 106 149 145 128 123 110 96 104 125 123 114 108 105 105 102 101 100 102 103 101
148 149 150 151 151 152 152 149 148 146 145 142 140 138 138 136 135 135 135 136 135 136 134 134 133 133 136 135 135 133 132 131 128 127 124 120 117 118 125 135 143 145 142 143 152 145 134 130 120 119 112 97 92 89 91 98 110 138 157 156 136 110 90 85 80 122 152 142 130 127 110 97 99 123 122 118 115 111 111 106 105 105 102 104 106
146 148 150 151 152 152 152 150 150 149 148 146 144 142 140 139 137 138 139 139 138 138 137 137 137 138 140 139 141 140 140 139 134 131 128 128 122 120 125 134 141 146 150 151 151 145 134 124 117 118 112 107 104 94 93 103 112 142 162 162 140 106 97 90 85 133 153 140 133 124 109 97 97 127 128 124 123 120 117 112 109 108 106 103 105
136 143 150 152 153 153 153 153 152 152 151 149 147 145 143 142 141 141 142 142 141 141 141 142 143 145 146 145 147 151 155 154 151 146 141 135 128 130 128 132 140 148 156 155 150 141 132 122 116 116 115 117 108 88 82 99 112 142 164 166 149 118 107 91 85 137 151 140 134 123 111 101 97 127 138 133 127 125 121 119 115 113 112 106 105
140 149 155 154 155 157 158 157 156 155 154 152 151 149 147 146 144 144 145 146 146 145 146 148 150 153 154 153 156 163 166 167 165 161 157 150 142 142 136 137 143 151 156 157 154 145 135 124 117 122 126 130 121 96 75 82 107 142 165 166 155 136 111 88 93 142 148 136 131 123 114 102 95 115 149 141 131 130 126 125 123 118 117 113 113
159 163 160 157 157 161 162 161 161 159 157 155 154 152 150 150 148 149 150 151 150 150 153 156 159 161 163 165 169 174 174 177 175 168 166 163 160 152 148 150 148 152 156 161 160 152 146 132 126 134 139 138 130 120 94 77 87 134 162 166 162 141 114 88 101 151 149 136 134 126 119 107 97 110 153 145 138 139 134 131 128 122 121 117 116
163 163 159 158 161 164 163 162 164 163 162 160 158 156 156 156 155 156 156 156 156 157 159 163 166 167 171 174 178 182 180 179 176 174 174 169 167 168 165 163 158 156 160 168 166 163 160 144 140 147 150 143 129 131 125 100 79 128 162 172 175 142 118 78 96 168 157 143 146 135 127 117 116 138 158 150 144 146 141 138 134 128 126 123 121
157 159 157 159 164 166 165 165 166 166 167 165 164 161 161 163 163 164 164 163 163 163 165 169 172 172 176 181 186 189 183 178 173 173 178 178 177 175 174 173 168 164 166 174 175 176 173 165 159 159 162 153 143 141 135 124 92 121 169 186 196 153 123 53 64 179 164 152 155 139 133 124 140 160 163 156 149 149 148 144 139 135 132 129 126
155 157 160 164 167 166 166 167 166 170 170 170 170 168 168 169 170 170 170 170 167 168 170 174 178 179 181 186 192 192 180 178 176 173 178 185 186 176 176 181 176 175 176 180 185 186 184 179 173 169 175 178 178 175 164 156 121 125 174 197 208 180 139 38 63 184 168 158 161 143 145 138 153 163 164 163 156 155 152 148 146 141 139 136 132
157 159 163 168 168 165 167 168 167 172 174 173 174 174 176 175 176 177 175 173 171 174 179 182 186 186 187 191 195 194 184 182 179 176 177 183 188 180 180 188 185 188 189 188 189 188 190 187 179 177 189 205 219 225 220 201 171 163 190 207 216 214 198 22 75 192 183 171 168 149 153 150 160 170 170 167 159 158 155 153 152 148 147 144 141
162 165 168 168 170 168 166 168 167 172 175 176 177 177 180 180 181 183 180 178 175 180 188 189 191 190 193 197 196 194 192 184 176 172 174 179 187 188 189 193 191 195 200 196 190 187 193 196 193 195 207 219 231 244 230 215 222 238 246 208 209 221 229 4 79 196 189 178 169 154 157 153 161 171 172 165 157 158 159 158 157 158 157 151 147
167 167 171 169 170 168 164 166 169 172 173 177 180 179 182 184 184 185 184 181 181 188 194 196 194 193 197 202 199 197 197 186 174 172 176 180 188 197 198 196 192 198 206 200 193 194 197 207 213 211 219 228 232 234 224 233 288 288 255 210 207 235 264 316 259 201 190 181 164 152 153 152 160 162 163 162 159 160 163 164 162 165 164 160 156
186 172 172 168 166 166 164 165 168 171 173 176 178 178 180 184 185 186 187 184 187 195 200 204 200 197 201 207 203 197 196 189 184 186 185 186 193 201 200 196 192 198 207 199 197 204 204 212 218 219 224 228 225 224 241 258 268 271 257 247 255 268 275 261 252 225 194 181 157 151 151 154 161 160 163 166 163 163 168 170 165 170 170 168 166
206 177 172 167 163 167 166 164 166 167 169 169 169 171 175 182 183 186 192 188 192 203 209 213 208 202 204 208 206 196 199 199 195 194 187 191 199 199 197 199 195 195 200 199 205 213 215 221 229 239 223 209 214 231 261 260 248 246 253 265 273 273 255 248 249 218 190 179 154 152 156 162 169 170 173 172 166 167 172 175 171 177 176 171 171
207 171 170 167 165 168 165 164 167 166 165 165 163 163 166 174 180 184 189 187 192 203 210 215 213 206 202 203 199 193 201 200 193 193 187 198 207 203 202 206 201 198 200 203 210 220 227 230 228 235 229 217 223 241 255 252 239 236 241 251 269 265 240 246 241 198 185 179 161 155 164 174 179 179 179 168 166 174 177 177 179 184 181 173 171
194 167 173 168 168 169 165 166 168 168 164 165 163 161 164 167 171 176 179 180 186 195 200 207 213 208 202 200 195 191 197 193 187 189 190 204 216 214 212 212 206 205 208 212 216 222 231 231 222 217 217 219 229 252 252 242 232 233 236 243 268 261 233 230 214 194 191 185 167 159 171 186 184 179 179 168 167 178 180 179 181 189 192 184 176
168 164 176 171 172 166 163 168 166 165 161 161 160 159 165 164 166 174 177 180 181 186 192 196 200 204 206 205 200 195 195 193 187 186 192 208 219 218 217 215 209 209 215 219 219 227 235 228 218 208 205 217 247 268 257 239 233 229 231 242 264 257 228 217 199 193 196 190 179 173 173 179 182 175 179 181 173 175 180 185 187 191 194 191 185
142 160 175 168 172 167 164 168 160 157 156 152 151 151 155 160 169 175 176 183 184 186 192 190 186 193 201 198 196 193 192 195 192 192 198 208 218 217 216 219 212 207 213 217 216 227 232 220 220 224 222 237 257 262 247 228 227 229 229 231 236 226 223 225 215 206 204 203 200 195 191 183 179 179 183 191 180 174 182 185 188 192 184 184 188
341 154 154 148 156 154 146 156 159 156 151 142 145 154 155 155 162 166 167 175 179 179 184 185 183 183 190 192 189 181 181 189 191 196 202 204 215 223 222 223 217 206 208 212 210 216 217 214 223 227 226 241 250 241 235 214 207 225 229 227 240 235 231 231 222 216 212 213 214 208 211 208 189 182 187 194 188 179 185 187 189 195 187 181 188
311 122 125 131 136 131 123 130 145 147 144 137 135 150 155 150 148 150 151 157 168 175 172 175 182 182 187 194 188 181 182 189 193 199 204 206 213 221 224 224 221 212 208 207 202 203 205 209 222 220 223 236 238 232 249 238 215 224 228 251 278 270 253 232 214 215 219 215 214 214 219 217 202 192 193 195 198 191 185 187 192 199 195 180 189
276 120 121 127 127 128 122 118 127 132 133 134 124 130 146 145 133 127 131 137 151 170 169 168 177 184 191 192 186 189 193 195 203 204 203 210 210 210 220 223 218 210 204 198 194 196 198 204 211 214 226 237 238 245 254 232 230 257 270 276 274 298 325 222 207 213 220 216 214 219 222 218 209 200 203 199 199 201 196 195 196 202 202 183 190
220 125 122 126 126 130 128 124 127 125 125 130 121 122 137 137 125 119 130 131 125 144 159 162 167 176 190 194 187 195 197 195 200 194 195 207 208 206 212 214 213 208 202 195 190 187 192 209 213 220 236 239 242 259 233 198 231 306 291 252 225 219 52 132 174 154 206 215 222 225 223 219 214 207 209 209 206 205 204 205 203 207 210 191 192
164 128 128 127 126 131 134 135 133 130 129 128 119 117 124 123 122 131 135 134 126 129 138 141 147 161 177 184 185 198 200 199 198 190 197 205 201 202 208 213 219 220 210 200 194 186 186 208 223 242 245 209 177 186 197 203 231 291 263 231 174 198 153 108 141 81 111 204 233 233 228 221 220 218 214 212 215 217 213 213 210 211 214 206 201
146 134 136 131 131 134 139 142 140 140 136 130 123 120 122 120 121 127 127 138 138 116 113 116 123 139 152 155 161 179 196 207 204 201 210 208 201 200 204 214 220 219 210 204 203 196 190 195 207 227 226 206 200 184 192 210 226 257 270 282 290 201 203 106 151 126 98 72 33 240 231 228 225 221 216 214 219 222 218 218 218 216 217 214 211
146 144 143 139 140 139 143 145 143 142 135 130 127 124 125 124 123 117 111 123 132 111 103 104 103 112 114 110 118 137 165 184 185 197 211 210 213 208 200 208 216 214 208 208 210 204 198 194 194 202 212 223 219 200 202 213 230 265 287 269 267 256 262 337 102 288 259 5 32 31 239 234 228 219 214 219 224 224 224 223 220 219 220 220 218
152 152 149 148 146 145 147 145 141 138 135 133 131 128 126 128 130 123 110 113 120 117 112 107 99 102 98 94 102 115 133 144 148 167 191 196 216 220 209 215 219 218 220 221 217 211 207 200 197 202 213 226 225 221 226 229 235 249 260 233 236 245 250 274 278 274 273 303 357 8 25 220 223 223 222 226 225 222 225 226 224 222 222 223 222
156 156 154 155 151 151 151 147 145 140 138 139 135 133 133 131 130 128 122 117 119 121 120 119 117 113 102 97 99 100 103 106 113 121 131 139 158 219 226 233 232 231 232 229 220 215 214 212 210 214 222 227 226 229 231 227 224 218 226 236 229 248 247 243 246 238 254 313 340 326 357 51 214 223 225 231 233 230 231 231 230 230 228 226 226
156 158 158 159 156 156 154 150 150 146 141 141 139 139 142 140 134 131 132 129 128 125 122 125 124 119 113 108 103 100 97 91 95 95 102 119 110 118 216 245 243 242 235 227 219 210 212 218 220 221 229 230 219 217 215 207 197 187 197 247 232 261 265 259 260 250 254 324 349 314 322 338 338 35 191 222 233 231 233 234 232 231 229 229 232
157 160 162 163 162 161 159 156 155 149 142 143 146 145 147 149 145 141 138 134 135 131 121 122 125 122 118 114 107 107 104 108 120 108 104 134 134 126 150 186 208 230 226 216 212 211 215 217 218 225 229 229 218 210 208 201 190 182 170 139 180 247 268 265 260 255 258 276 297 309 323 330 314 297 256 232 258 211 225 236 235 233 231 231 234
159 161 164 165 165 165 164 162 158 152 148 153 159 154 153 154 147 146 143 134 132 128 115 111 114 114 115 113 111 110 104 119 140 123 108 127 145 135 130 131 122 180 220 198 189 202 215 210 210 226 226 219 214 210 209 202 183 165 143 115 116 239 287 284 262 254 256 261 270 283 301 315 310 295 283 270 286 324 290 245 237 234 235 237 240
161 161 164 166 167 170 170 166 159 156 155 156 157 153 150 147 140 140 139 131 126 122 115 113 111 110 112 110 111 108 102 113 125 121 113 118 133 142 134 127 111 86 137 176 186 190 202 204 201 209 206 197 204 209 215 204 180 165 130 87 59 63 342 287 263 239 231 240 251 263 276 289 301 302 294 278 270 275 282 268 238 229 236 241 247
164 163 166 168 170 174 175 169 164 165 163 157 154 148 141 137 132 131 130 128 126 123 121 120 113 110 111 111 113 112 107 112 117 119 115 107 114 130 130 119 104 89 96 126 144 128 123 165 188 196 197 193 191 191 203 205 191 184 155 113 90 26 217 212 215 225 217 208 227 250 260 266 286 312 299 276 258 257 267 265 250 244 242 242 251
167 167 169 171 173 177 178 173 170 172 170 165 162 155 148 143 139 134 132 131 131 131 131 127 121 117 114 111 112 110 105 110 118 118 106 98 104 117 134 127 103 98 103 113 118 101 96 103 108 138 185 188 178 168 165 174 189 193 186 161 134 122 186 164 124 199 241 222 224 243 252 250 257 259 253 260 256 245 253 261 256 248 247 249 249
167 168 171 173 175 178 178 176 175 176 174 173 173 168 159 154 151 144 140 139 136 136 136 130 125 119 114 109 104 101 98 101 109 113 102 95 94 98 126 133 111 107 109 108 111 104 98 97 88 85 104 148 159 154 146 139 153 180 194 187 158 149 180 172 169 166 214 247 242 245 255 253 242 234 229 235 235 224 233 250 264 257 249 249 245
170 170 173 173 177 180 179 177 178 180 178 177 179 176 169 161 154 148 145 144 138 135 135 131 125 119 115 114 108 103 101 99 99 103 100 95 90 87 100 113 106 105 109 107 107 105 101 100 94 87 84 96 110 113 122 127 123 129 163 177 168 175 199 192 171 153 128 184 266 268 272 264 244 237 228 227 232 228 228 235 255 264 256 247 235
179 180 180 175 175 177 177 176 181 186 184 182 182 179 173 162 154 152 151 147 141 137 136 131 127 124 121 119 116 110 108 104 102 103 99 94 95 90 90 95 92 90 98 106 110 109 106 102 98 92 87 87 88 93 103 105 102 103 115 153 178 187 187 149 143 159 141 152 270 286 309 301 274 260 237 226 233 232 230 232 233 245 256 253 242
183 188 188 184 177 172 170 174 185 190 190 186 183 179 169 160 160 161 154 148 144 141 139 134 132 132 126 120 121 120 118 116 112 111 107 100 103 99 91 90 89 84 84 92 101 102 102 100 97 97 96 94 92 97 102 96 91 90 89 100 129 153 146 93 68 55 99 172 244 281 343 343 318 314 272 232 233 232 232 238 236 241 247 248 250
181 186 188 188 186 176 166 170 189 195 194 190 184 177 168 164 169 167 158 152 150 147 144 142 140 137 131 127 128 129 126 125 121 117 115 108 106 107 103 98 98 94 85 86 91 92 95 99 99 101 103 103 102 101 101 98 93 86 83 88 96 104 100 80 64 56 58 64 307 289 349 356 355 9 6 289 245 241 237 240 238 244 252 249 243